Weather History for Mineral Point, WI

Change the Weather History Date:

Saturday, May 11, 2013

  Actual Average (KLNR) Record (KLNR)
Temperature  
Mean Temperature 47 °F -  
Max Temperature 53 °F 65 °F 90 °F (2011)
Min Temperature 41 °F 45 °F 37 °F (2006)
Degree Days  
Heating Degree Days 18    
Moisture  
Dew Point 32 °F    
Average Humidity 57    
Maximum Humidity 93    
Minimum Humidity 28    
Precipitation  
Precipitation 0.01 in - - ()
Sea Level Pressure  
Sea Level Pressure 29.95 in    
Wind  
Wind Speed 12 mph (WNW)    
Max Wind Speed 29 mph    
Max Gust Speed 39 mph    
Visibility 9 miles    
Events Rain    
Averages and records for this station are not official NWS values.
T = Trace of Precipitation, MM = Missing Value Source: NWS Daily Summary

Daily Weather History Graph

Daily Weather History Graph

Search for Another Location

Airport:

Trip Planner

Search our weather history database for the weather conditions in past years. The results will help you decide how hot, cold, wet, or windy it might be!

Date:

Astronomy

May. 11, 2013 Rise Set
Actual Time 5:42 AM CDT 8:13 PM CDT
Civil Twilight 5:09 AM CDT 8:45 PM CDT
Nautical Twilight 4:29 AM CDT 9:25 PM CDT
Astronomical Twilight 3:44 AM CDT 10:11 PM CDT
Moon 6:49 AM CDT (5/11) 9:54 PM CDT (5/11)
Length of Visible Light 15h 35m
Length of Day
14h 31m
Waxing Crescent, 3% of the Moon is Illuminated
May 11
Waxing Crescent
May 17
First Quarter
May 24
Full
May 31
Last Quarter
Jun 8
New

Hourly Weather History & Observations

Time (CDT) Temp. Windchill Dew Point Humidity Pressure Visibility Wind Dir Wind Speed Gust Speed Precip Events Conditions
12:15 AM 46.4 °F 43.5 °F 42.8 °F 87% 29.96 in 10.0 mi South 5.8 mph - N/A   Clear
12:35 AM 46.4 °F 44.3 °F 42.8 °F 87% 29.95 in 10.0 mi South 4.6 mph - N/A   Clear
12:55 AM 46.4 °F 44.3 °F 42.8 °F 87% 29.95 in 10.0 mi South 4.6 mph - N/A   Clear
1:15 AM 46.4 °F 42.4 °F 44.6 °F 93% 29.94 in 10.0 mi SSW 8.1 mph - N/A   Clear
1:35 AM 46.4 °F 41.9 °F 44.6 °F 93% 29.94 in 10.0 mi SSW 9.2 mph - N/A   Clear
1:55 AM 46.4 °F 42.9 °F 44.6 °F 93% 29.93 in 7.0 mi SSW 6.9 mph - N/A   Clear
2:15 AM 46.4 °F 42.9 °F 44.6 °F 93% 29.92 in 7.0 mi SSW 6.9 mph - N/A   Clear
2:35 AM 46.4 °F 41.9 °F 44.6 °F 93% 29.92 in 7.0 mi South 9.2 mph - N/A   Clear
2:55 AM 46.4 °F 41.9 °F 44.6 °F 93% 29.91 in 7.0 mi SSW 9.2 mph - N/A   Clear
3:15 AM 46.4 °F 42.9 °F 44.6 °F 93% 29.91 in 7.0 mi SSW 6.9 mph - N/A   Clear
3:35 AM 46.4 °F 42.9 °F 44.6 °F 93% 29.90 in 5.0 mi South 6.9 mph - N/A   Clear
3:55 AM 46.4 °F 43.5 °F 44.6 °F 93% 29.89 in 5.0 mi South 5.8 mph - N/A   Clear
4:15 AM 46.4 °F 43.5 °F 44.6 °F 93% 29.88 in 5.0 mi South 5.8 mph - N/A   Clear
4:35 AM 48.2 °F - 44.6 °F 87% 29.87 in 7.0 mi SSW 8.1 mph - N/A   Scattered Clouds
4:55 AM 48.2 °F - 46.4 °F 93% 29.86 in 7.0 mi South 5.8 mph - N/A   Overcast
5:15 AM 50.0 °F - 46.4 °F 87% 29.86 in 5.0 mi SSW 5.8 mph - N/A   Overcast
5:35 AM 50.0 °F - 46.4 °F 87% 29.85 in 4.0 mi SSW 10.4 mph - N/A Rain Light Rain
5:55 AM 50.0 °F - 46.4 °F 87% 29.84 in 3.0 mi South 10.4 mph - 0.01 in Rain Rain
6:15 AM 50.0 °F - 46.4 °F 87% 29.84 in 3.0 mi SSW 11.5 mph - N/A   Overcast
6:35 AM 50.0 °F - 46.4 °F 87% 29.84 in 3.0 mi SSW 10.4 mph - N/A   Overcast
6:55 AM 50.0 °F - 46.4 °F 87% 29.83 in 5.0 mi SW 13.8 mph - N/A   Overcast
7:15 AM 51.8 °F - 46.4 °F 82% 29.83 in 7.0 mi WSW 15.0 mph - N/A   Scattered Clouds
7:35 AM 51.8 °F - 46.4 °F 82% 29.83 in 10.0 mi West 18.4 mph 21.9 mph N/A   Clear
7:55 AM 51.8 °F - 44.6 °F 76% 29.83 in 10.0 mi WNW 18.4 mph 26.5 mph N/A   Mostly Cloudy
8:15 AM 51.8 °F - 42.8 °F 71% 29.85 in 10.0 mi NW 20.7 mph 25.3 mph N/A   Overcast
8:35 AM 51.8 °F - 41.0 °F 67% 29.86 in 10.0 mi NW 21.9 mph 32.2 mph N/A   Mostly Cloudy
8:55 AM 50.0 °F - 37.4 °F 62% 29.88 in 10.0 mi NNW 20.7 mph 35.7 mph N/A   Scattered Clouds
9:15 AM 50.0 °F - 35.6 °F 58% 29.89 in 10.0 mi NW 24.2 mph 28.8 mph N/A   Scattered Clouds
9:35 AM 51.8 °F - 33.8 °F 50% 29.89 in 10.0 mi NW 28.8 mph 39.1 mph N/A   Scattered Clouds
9:55 AM 51.8 °F - 32.0 °F 47% 29.89 in 10.0 mi NW 19.6 mph 31.1 mph N/A   Scattered Clouds
10:15 AM 51.8 °F - 23.0 °F 33% 29.89 in 10.0 mi NW 24.2 mph 36.8 mph N/A   Scattered Clouds
10:35 AM 51.8 °F - 28.4 °F 41% 29.90 in 10.0 mi NW 18.4 mph 28.8 mph N/A   Clear
10:55 AM 51.8 °F - 26.6 °F 38% 29.91 in 10.0 mi NW 19.6 mph 29.9 mph N/A   Clear
11:15 AM 51.8 °F - 24.8 °F 35% 29.92 in 10.0 mi NW 23.0 mph 28.8 mph N/A   Clear
11:35 AM 53.6 °F - 26.6 °F 35% 29.93 in 10.0 mi NW 13.8 mph 29.9 mph N/A   Clear
11:55 AM 53.6 °F - 21.2 °F 28% 29.94 in 10.0 mi NNW 26.5 mph 34.5 mph N/A   Clear
12:15 PM 53.6 °F - 26.6 °F 35% 29.94 in 10.0 mi NW 19.6 mph 28.8 mph N/A   Clear
12:35 PM 53.6 °F - 23.0 °F 30% 29.94 in 10.0 mi NW 21.9 mph 33.4 mph N/A   Clear
12:55 PM 51.8 °F - 21.2 °F 30% 29.95 in 10.0 mi NW 25.3 mph 38.0 mph N/A   Clear
1:15 PM 50.0 °F - 23.0 °F 35% 29.96 in 10.0 mi NW 20.7 mph 32.2 mph N/A   Mostly Cloudy
1:35 PM 51.8 °F - 24.8 °F 35% 29.96 in 10.0 mi NW 16.1 mph 26.5 mph N/A   Mostly Cloudy
1:55 PM 51.8 °F - 23.0 °F 33% 29.97 in 10.0 mi NNW 21.9 mph 31.1 mph N/A   Mostly Cloudy
2:15 PM 51.8 °F - 28.4 °F 41% 29.97 in 10.0 mi WNW 13.8 mph 23.0 mph N/A   Mostly Cloudy
2:35 PM 48.2 °F - 30.2 °F 50% 29.98 in 10.0 mi NNW 19.6 mph 26.5 mph N/A Rain Light Rain
2:55 PM 51.8 °F - 26.6 °F 38% 29.98 in 10.0 mi WNW 16.1 mph 29.9 mph N/A   Scattered Clouds
3:15 PM 46.4 °F 39.8 °F 28.4 °F 50% 29.99 in 10.0 mi WNW 16.1 mph 32.2 mph N/A   Mostly Cloudy
3:35 PM 50.0 °F - 26.6 °F 40% 29.99 in 10.0 mi WNW 20.7 mph 26.5 mph N/A   Mostly Cloudy
3:55 PM 51.8 °F - 23.0 °F 33% 29.99 in 10.0 mi WNW 17.3 mph 28.8 mph N/A   Scattered Clouds
4:15 PM 50.0 °F - 24.8 °F 37% 30.00 in 10.0 mi NW 19.6 mph 35.7 mph N/A   Mostly Cloudy
4:35 PM 50.0 °F - 24.8 °F 37% 29.99 in 10.0 mi WNW 19.6 mph 28.8 mph N/A   Scattered Clouds
4:55 PM 51.8 °F - 23.0 °F 33% 30.00 in 10.0 mi WNW 20.7 mph 32.2 mph N/A   Clear
5:15 PM 51.8 °F - 24.8 °F 35% 30.01 in 10.0 mi NNW 20.7 mph 28.8 mph N/A   Scattered Clouds
5:35 PM 48.2 °F - 26.6 °F 43% 30.02 in 10.0 mi NW 15.0 mph 19.6 mph N/A   Mostly Cloudy
5:55 PM 50.0 °F - 24.8 °F 37% 30.02 in 10.0 mi NW 18.4 mph 25.3 mph N/A   Scattered Clouds
6:15 PM 50.0 °F - 23.0 °F 35% 30.02 in 10.0 mi NW 12.7 mph 27.6 mph N/A Rain Light Rain
6:35 PM 50.0 °F - 21.2 °F 32% 30.02 in 10.0 mi NNW 15.0 mph 26.5 mph N/A   Scattered Clouds
6:55 PM 50.0 °F - 23.0 °F 35% 30.03 in 10.0 mi NNW 12.7 mph 18.4 mph N/A   Mostly Cloudy
7:15 PM 48.2 °F - 23.0 °F 37% 30.03 in 10.0 mi NW 10.4 mph 18.4 mph N/A   Scattered Clouds
7:35 PM 48.2 °F - 26.6 °F 43% 30.03 in 10.0 mi NW 10.4 mph - N/A   Scattered Clouds
7:55 PM 46.4 °F 41.5 °F 24.8 °F 43% 30.03 in 10.0 mi NW 10.4 mph - N/A   Scattered Clouds
8:15 PM 46.4 °F 42.9 °F 26.6 °F 46% 30.04 in 10.0 mi NW 6.9 mph - N/A   Mostly Cloudy
8:35 PM 46.4 °F 41.5 °F 23.0 °F 40% 30.04 in 10.0 mi NW 10.4 mph 17.3 mph N/A   Overcast
8:55 PM 44.6 °F 37.8 °F 21.2 °F 39% 30.05 in 10.0 mi NW 15.0 mph 24.2 mph N/A   Scattered Clouds
9:15 PM 44.6 °F 38.1 °F 21.2 °F 39% 30.07 in 10.0 mi NW 13.8 mph 21.9 mph N/A   Scattered Clouds
9:35 PM 44.6 °F 38.4 °F 21.2 °F 39% 30.07 in 10.0 mi NW 12.7 mph - N/A   Clear
9:55 PM 42.8 °F 36.2 °F 21.2 °F 42% 30.07 in 10.0 mi NW 12.7 mph - N/A   Clear
10:15 PM 42.8 °F 37.0 °F 21.2 °F 42% 30.07 in 10.0 mi WNW 10.4 mph 16.1 mph N/A   Clear
10:35 PM 42.8 °F 37.0 °F 21.2 °F 42% 30.07 in 10.0 mi WNW 10.4 mph 18.4 mph N/A   Clear
10:55 PM 42.8 °F 38.0 °F 21.2 °F 42% 30.07 in 10.0 mi WNW 8.1 mph - N/A   Clear
11:15 PM 41.0 °F 35.8 °F 21.2 °F 45% 30.07 in 10.0 mi WNW 8.1 mph - N/A   Clear
11:35 PM 41.0 °F 35.8 °F 23.0 °F 49% 30.08 in 10.0 mi WNW 8.1 mph - N/A   Clear
11:55 PM 41.0 °F 37.1 °F 23.0 °F 49% 30.08 in 10.0 mi WNW 5.8 mph - N/A   Clear